Wind_Speed
12 11 12 17 18 18 14 12 7 11 14 24 22 23 24 29 28 22 24 23 28 34 40 46 50 52 50 47 44 41 37 33 29 25 21 19 17 14 12 10 7 6 7 7
17 17 11 15 20 24 16 18 20 24 23 22 32 35 27 25 21 21 24 30 36 38 41 47 52 56 54 50 46 42 39 36 29 25 23 19 18 15 13 10 7 7 8 7
13 18 12 10 21 16 20 22 15 15 19 18 19 20 19 26 28 27 29 34 40 45 46 48 51 56 57 52 48 45 38 34 28 26 21 20 16 14 12 9 8 9 8 9
10 14 12 10 10 18 24 22 16 16 19 20 18 27 30 32 35 33 19 26 35 41 44 40 43 49 51 50 49 44 38 32 30 23 19 20 16 14 13 11 10 10 10 9
5 10 15 12 17 8 7 12 12 8 6 7 25 24 29 38 34 15 20 27 32 38 42 42 43 47 48 48 47 42 39 34 24 20 23 20 18 17 14 12 12 11 10 10
7 10 10 9 13 8 6 8 6 9 7 12 17 6 11 21 15 22 35 32 29 35 35 38 42 47 48 50 47 40 29 23 21 21 20 18 17 16 14 13 11 9 11 12
13 10 8 8 10 21 6 5 4 4 6 11 4 8 25 30 35 27 20 21 19 30 34 36 40 43 46 46 41 32 26 22 21 21 19 18 18 15 14 13 11 10 12 14
10 12 14 15 4 8 7 7 10 16 18 13 16 13 19 26 21 16 9 11 18 25 30 34 36 40 42 42 34 27 23 22 23 22 20 18 17 15 15 13 11 11 14 14
8 5 6 7 9 22 26 27 25 23 22 26 24 20 21 16 12 12 12 18 22 26 29 31 32 33 41 36 30 25 24 25 23 20 18 19 16 15 15 12 12 12 14 12
7 18 18 28 25 21 24 28 27 23 23 25 26 24 21 18 15 14 16 20 22 24 28 30 32 36 31 26 23 23 24 25 21 20 20 17 15 14 12 13 12 12 12 9
6 10 12 20 14 21 24 22 22 22 23 24 22 24 21 20 17 17 18 20 24 25 28 29 25 23 21 19 19 21 23 20 20 20 17 16 14 12 12 11 9 8 7 6
10 14 12 17 26 18 29 29 27 25 29 21 18 20 22 22 19 19 21 22 23 25 27 27 26 22 20 17 18 21 21 20 19 17 17 16 14 14 11 8 7 5 4 5
17 27 29 33 26 33 37 32 31 31 19 19 16 17 22 22 21 22 22 22 25 28 25 22 19 21 16 18 19 17 16 16 17 16 15 14 14 13 10 8 7 4 5 7
30 28 25 30 31 31 23 28 23 17 16 15 16 18 21 23 22 20 23 25 24 18 20 19 21 19 19 18 15 12 13 13 13 12 13 13 12 9 8 8 9 8 8 8
34 36 40 40 35 37 35 28 20 20 17 12 14 20 23 22 22 22 22 18 16 16 17 19 20 18 16 13 11 11 11 12 11 12 11 9 8 9 10 9 7 8 9 9
31 31 31 34 25 26 19 20 19 15 13 15 18 19 21 20 24 23 20 16 17 20 19 17 15 13 12 10 8 9 9 10 10 10 10 9 9 10 9 8 7 9 11 11
27 26 29 25 23 23 20 14 16 15 16 19 23 25 22 26 22 20 20 21 17 14 13 13 12 11 9 9 8 7 8 9 10 12 12 11 11 10 9 8 10 12 11 12
26 35 30 28 27 21 16 14 16 16 19 24 20 21 20 21 21 24 24 20 18 15 15 13 11 10 9 9 7 7 9 11 11 10 11 13 12 10 8 10 11 12 13 13
29 25 26 26 22 18 17 15 15 15 23 22 18 20 20 21 21 21 20 20 18 17 16 14 13 11 9 9 10 10 10 11 11 9 9 10 11 10 10 11 12 12 13 14
18 21 24 24 23 19 16 15 16 16 16 17 17 19 22 21 19 18 17 17 15 12 11 11 10 10 11 11 11 11 11 11 11 10 10 10 11 11 12 12 12 13 15 17
3 12 20 23 21 19 15 13 16 17 19 19 18 18 18 18 18 17 18 18 16 13 11 11 12 11 11 11 12 12 12 11 11 11 10 11 12 13 13 13 14 15 17 19
10 14 19 19 13 18 17 15 15 16 19 19 18 16 16 16 18 17 15 12 12 12 11 11 10 10 10 11 11 12 12 14 13 13 13 11 13 13 14 14 14 16 19 21
9 11 13 14 18 19 18 19 19 17 17 18 16 13 13 13 13 15 16 16 14 12 10 8 9 9 9 10 10 10 9 9 12 12 11 11 12 13 14 14 16 19 21 23
5 5 11 15 16 18 21 22 20 17 15 13 11 10 11 13 14 14 13 11 10 9 9 9 9 7 7 8 9 8 6 5 7 10 12 13 12 12 13 15 19 21 23 25
3 10 15 17 19 20 21 22 20 17 16 15 14 14 14 13 10 11 11 10 9 9 9 8 7 6 6 7 8 8 8 9 11 11 13 12 13 13 16 18 20 23 24 25
4 9 15 18 19 20 21 21 19 19 18 18 17 17 16 14 11 8 10 9 8 9 8 7 6 6 7 8 8 8 10 12 12 10 10 10 12 15 18 20 22 23 25 25
9 11 15 17 17 17 17 17 17 18 17 15 14 15 14 12 10 9 9 9 8 8 8 8 7 7 8 7 6 8 9 8 7 8 8 12 16 18 19 21 22 24 24 24
Wind_Direction
269 254 257 275 286 290 262 244 242 298 275 279 283 287 287 299 302 291 281 238 225 219 216 209 206 205 204 203 201 200 200 202 203 203 206 207 208 212 212 215 225 242 256 256
285 279 248 258 265 264 254 256 262 256 263 260 267 274 282 285 287 269 256 261 250 236 223 217 210 207 205 204 199 198 200 200 199 201 204 203 207 205 204 210 228 245 242 252
279 284 289 259 243 257 262 264 257 253 246 260 256 263 281 290 281 276 262 252 244 237 230 222 216 211 206 204 198 195 198 200 196 199 198 203 199 200 202 216 230 233 238 259
274 294 265 247 227 241 250 259 259 265 261 257 257 271 280 280 277 276 289 292 247 233 225 219 215 208 206 203 195 193 195 193 192 196 198 197 201 204 208 216 226 234 243 259
244 249 276 298 269 237 199 250 257 241 286 296 279 281 281 270 265 283 287 287 259 249 233 220 212 206 202 196 193 193 190 194 195 197 198 200 201 206 212 219 223 231 248 259
246 270 273 276 330 274 251 262 276 238 248 265 296 280 268 308 284 259 260 292 253 235 216 208 201 199 197 190 189 189 190 199 196 186 204 204 209 211 217 223 225 233 244 253
251 267 274 241 251 325 252 245 292 327 273 257 225 256 291 291 286 293 282 283 242 214 204 198 196 197 190 192 189 189 201 191 181 192 203 213 215 217 223 219 223 235 247 257
249 251 263 222 230 187 237 310 275 301 283 286 281 287 285 286 291 292 274 241 206 190 184 185 191 194 194 186 191 196 190 181 182 198 207 214 216 213 214 220 229 242 251 262
206 228 237 225 260 292 280 271 267 263 264 284 271 273 270 263 259 249 208 191 190 190 181 181 188 196 188 191 191 183 180 175 193 205 214 212 214 214 214 224 235 246 251 259
236 253 251 260 272 294 294 271 267 269 270 274 265 267 250 239 228 211 197 185 183 179 174 171 182 185 190 176 178 182 173 189 199 210 206 207 210 220 226 233 239 243 246 249
255 276 267 268 273 300 312 292 268 278 289 281 278 258 237 229 210 200 190 182 184 182 178 174 173 172 174 179 185 176 188 198 202 202 210 214 216 227 229 229 240 241 244 256
251 251 244 262 294 283 306 296 286 279 288 282 263 244 226 216 208 198 186 179 178 177 174 172 176 176 175 184 175 190 198 197 200 208 213 218 221 217 212 222 227 235 245 284
250 264 266 281 286 290 289 281 280 286 270 260 261 244 222 215 198 195 185 180 177 172 176 175 173 173 185 173 184 200 204 203 207 212 216 219 216 220 220 221 232 229 244 267
262 262 271 273 281 287 277 282 285 268 264 255 242 218 210 199 184 182 176 174 173 182 175 168 176 187 174 180 189 195 204 211 212 214 215 214 218 223 228 232 234 245 259 276
265 263 264 276 282 284 283 274 255 261 270 248 224 215 204 182 172 169 169 178 168 175 181 178 177 178 181 188 194 201 204 205 209 209 206 210 228 233 227 223 233 253 269 278
268 270 271 271 273 282 271 246 241 230 224 218 206 192 180 177 169 178 180 172 172 180 176 176 181 184 183 185 195 207 208 208 210 212 221 232 234 221 222 233 252 274 277 284
260 255 256 255 258 265 243 224 215 218 206 193 172 165 179 169 181 176 172 177 178 175 175 176 178 177 185 197 216 221 214 218 228 228 227 228 227 229 234 249 267 285 278 292
266 257 256 251 256 245 225 218 210 219 195 177 186 182 180 183 176 174 177 174 174 175 176 177 185 196 203 217 232 232 230 230 231 233 232 232 237 244 253 269 280 279 281 294
264 251 244 241 233 230 217 210 203 194 192 199 191 181 182 182 176 177 180 185 188 189 187 190 197 206 224 242 241 231 222 221 223 226 227 232 242 251 256 274 282 277 287 293
281 237 224 220 223 208 194 203 182 172 169 175 178 177 179 180 183 186 190 197 200 195 199 204 215 229 234 237 239 235 230 230 231 230 234 245 257 258 263 272 276 281 288 300
185 175 196 199 190 184 186 197 176 180 173 177 177 180 186 187 190 195 197 196 196 201 209 219 223 225 228 233 235 238 239 235 232 236 249 262 262 260 268 273 280 289 298 302
176 174 172 171 195 179 175 178 181 182 180 180 183 186 186 189 193 196 198 203 208 210 213 216 215 218 224 229 231 233 236 240 238 238 246 256 263 264 270 281 290 297 302 305
131 150 163 162 161 166 173 176 178 181 184 185 186 187 184 180 179 187 193 200 200 203 203 204 210 215 221 219 218 221 235 238 234 242 253 261 262 269 281 288 295 300 304 307
220 189 169 165 171 176 177 181 185 184 184 179 178 172 174 176 180 184 191 194 198 192 194 200 207 219 224 211 211 217 217 228 245 254 255 261 270 281 290 289 295 302 305 308
203 188 184 182 182 184 183 179 178 179 177 175 172 173 175 174 182 189 195 194 194 192 195 195 202 209 212 211 209 211 231 250 264 262 262 266 278 286 289 295 300 304 306 308
209 185 184 186 184 182 182 184 188 183 181 180 181 182 183 186 188 184 191 190 186 183 189 192 201 212 208 210 218 232 252 261 265 259 260 272 286 292 296 299 302 305 308 310
209 196 187 184 186 190 194 193 189 186 187 189 189 187 190 196 195 189 187 192 196 192 196 209 223 222 208 206 230 267 270 261 251 254 268 282 293 296 299 303 306 308 310 310
Height
1457 1459 1461 1455 1451 1448 1448 1445 1442 1434 1436 1423 1419 1413 1408 1405 1405 1405 1403 1400 1400 1399 1403 1404 1406 1411 1417 1422 1427 1435 1442 1448 1451 1455 1459 1461 1464 1466 1469 1472 1474 1475 1476 1478
1459 1453 1457 1458 1450 1437 1440 1438 1432 1430 1429 1421 1411 1408 1406 1402 1401 1400 1397 1396 1393 1392 1396 1400 1399 1404 1410 1416 1419 1430 1438 1442 1446 1450 1454 1457 1460 1462 1465 1466 1469 1472 1474 1474
1459 1447 1449 1453 1434 1433 1429 1423 1422 1419 1410 1405 1404 1401 1401 1399 1393 1391 1388 1386 1383 1382 1381 1388 1392 1398 1402 1410 1416 1423 1433 1440 1442 1445 1451 1455 1458 1460 1463 1464 1465 1469 1471 1473
1455 1450 1453 1423 1418 1415 1411 1410 1409 1407 1402 1398 1395 1393 1394 1391 1385 1382 1381 1379 1376 1375 1378 1383 1390 1396 1401 1408 1412 1420 1428 1435 1438 1442 1448 1452 1455 1458 1459 1459 1462 1465 1467 1467
1451 1444 1425 1419 1410 1405 1406 1402 1400 1398 1397 1393 1391 1391 1384 1380 1379 1377 1376 1373 1372 1369 1371 1374 1382 1390 1396 1403 1412 1417 1421 1428 1433 1437 1446 1449 1451 1454 1454 1457 1457 1459 1462 1465
1443 1436 1427 1411 1405 1398 1399 1403 1392 1392 1391 1389 1389 1390 1379 1377 1374 1370 1366 1365 1365 1365 1369 1374 1376 1382 1390 1396 1405 1412 1421 1425 1431 1438 1445 1450 1452 1452 1454 1455 1455 1456 1460 1461
1436 1432 1420 1408 1404 1409 1409 1402 1390 1389 1387 1388 1387 1384 1376 1374 1369 1366 1360 1360 1360 1362 1366 1370 1374 1381 1388 1397 1404 1412 1419 1424 1431 1436 1444 1448 1450 1450 1453 1452 1452 1453 1456 1458
1428 1427 1422 1396 1400 1401 1395 1385 1388 1385 1383 1382 1379 1375 1372 1369 1361 1360 1358 1360 1363 1366 1367 1369 1376 1384 1390 1398 1406 1412 1418 1422 1430 1436 1440 1444 1446 1449 1450 1449 1448 1450 1454 1454
1416 1407 1392 1391 1387 1385 1385 1383 1380 1378 1376 1375 1373 1370 1368 1363 1364 1363 1361 1363 1364 1367 1371 1373 1378 1385 1392 1398 1406 1411 1417 1422 1430 1434 1438 1443 1443 1445 1445 1445 1446 1448 1450 1449
1409 1390 1389 1385 1384 1382 1380 1376 1375 1373 1372 1370 1366 1364 1364 1364 1362 1363 1365 1363 1366 1369 1372 1376 1381 1385 1394 1401 1406 1411 1416 1421 1426 1432 1436 1439 1439 1442 1440 1442 1443 1445 1447 1445
1391 1383 1383 1378 1378 1377 1374 1371 1370 1367 1365 1364 1362 1361 1362 1363 1362 1363 1364 1366 1367 1368 1374 1378 1387 1393 1398 1404 1409 1413 1418 1420 1424 1428 1432 1437 1437 1437 1438 1440 1440 1443 1443 1443
1384 1379 1379 1371 1371 1370 1368 1364 1363 1363 1360 1358 1357 1357 1360 1361 1361 1363 1365 1367 1370 1374 1377 1381 1387 1393 1399 1405 1409 1413 1417 1419 1422 1426 1431 1433 1433 1435 1436 1436 1438 1440 1440 1441
1373 1371 1369 1365 1364 1364 1362 1360 1359 1356 1354 1355 1354 1353 1356 1360 1360 1363 1367 1371 1374 1378 1382 1385 1390 1396 1399 1404 1409 1413 1416 1419 1422 1425 1427 1429 1431 1432 1432 1434 1436 1438 1439 1440
1365 1367 1362 1362 1358 1356 1356 1355 1353 1351 1351 1353 1351 1352 1354 1357 1360 1365 1369 1374 1378 1380 1387 1389 1393 1398 1401 1405 1409 1413 1416 1419 1421 1422 1425 1427 1428 1428 1430 1433 1434 1436 1437 1438
1357 1358 1355 1352 1353 1349 1348 1349 1347 1346 1346 1346 1348 1350 1352 1356 1361 1368 1372 1376 1379 1384 1389 1391 1396 1400 1403 1407 1410 1413 1415 1417 1418 1421 1423 1424 1424 1426 1429 1431 1432 1433 1434 1434
1348 1347 1347 1346 1346 1343 1341 1342 1342 1343 1344 1345 1348 1351 1355 1359 1363 1368 1373 1376 1378 1384 1389 1393 1398 1401 1403 1406 1409 1412 1413 1415 1417 1419 1420 1421 1423 1425 1427 1428 1430 1430 1431 1431
1340 1337 1338 1338 1339 1337 1337 1339 1341 1342 1343 1345 1349 1354 1356 1360 1366 1371 1373 1377 1382 1386 1390 1394 1398 1401 1403 1406 1409 1410 1411 1412 1414 1417 1418 1420 1421 1423 1425 1426 1427 1427 1427 1427
1326 1327 1330 1331 1330 1332 1335 1336 1339 1341 1343 1347 1351 1353 1357 1363 1367 1370 1375 1379 1383 1388 1391 1395 1398 1400 1403 1405 1406 1407 1409 1411 1412 1414 1416 1417 1419 1421 1423 1424 1424 1424 1424 1424
1317 1316 1319 1323 1326 1328 1331 1334 1337 1339 1343 1347 1350 1354 1359 1363 1367 1371 1375 1379 1383 1387 1390 1393 1396 1398 1400 1402 1404 1406 1407 1409 1411 1412 1414 1416 1418 1419 1420 1421 1421 1420 1420 1419
1301 1305 1312 1318 1322 1326 1329 1333 1336 1340 1344 1347 1351 1355 1359 1364 1369 1372 1376 1379 1383 1387 1389 1392 1394 1397 1399 1400 1402 1403 1405 1407 1409 1411 1412 1414 1415 1416 1417 1417 1417 1417 1416 1415
1304 1305 1309 1316 1320 1325 1329 1332 1337 1341 1345 1349 1353 1356 1360 1365 1369 1372 1375 1378 1382 1385 1388 1391 1393 1395 1397 1398 1399 1401 1403 1405 1407 1408 1410 1411 1412 1413 1413 1414 1413 1412 1411 1410
1309 1309 1312 1318 1321 1323 1329 1334 1338 1342 1346 1350 1354 1357 1360 1364 1367 1371 1375 1379 1381 1384 1387 1389 1391 1393 1394 1396 1397 1399 1400 1402 1404 1406 1407 1408 1409 1409 1410 1410 1409 1408 1407 1405
1314 1315 1316 1319 1323 1327 1331 1336 1340 1344 1347 1351 1354 1357 1360 1363 1366 1369 1373 1376 1379 1382 1385 1387 1389 1390 1392 1394 1395 1396 1398 1399 1401 1403 1404 1405 1405 1405 1406 1405 1405 1403 1402 1399
1319 1320 1321 1324 1327 1330 1333 1337 1342 1346 1350 1352 1355 1358 1360 1363 1368 1371 1373 1376 1378 1381 1383 1385 1387 1388 1390 1391 1393 1394 1396 1397 1399 1400 1400 1401 1401 1401 1401 1401 1400 1398 1396 1393
1320 1321 1323 1326 1328 1331 1334 1339 1343 1346 1349 1352 1355 1358 1362 1364 1368 1370 1372 1374 1377 1379 1381 1383 1385 1386 1387 1389 1391 1392 1394 1395 1395 1396 1396 1397 1397 1397 1397 1396 1394 1392 1390 1387
1323 1324 1325 1328 1330 1333 1336 1339 1342 1345 1348 1351 1355 1358 1360 1363 1366 1368 1370 1373 1375 1377 1379 1381 1382 1384 1385 1387 1388 1389 1390 1391 1392 1392 1393 1394 1394 1393 1392 1391 1389 1386 1384 1381
1325 1326 1327 1329 1332 1334 1337 1339 1342 1345 1348 1351 1354 1356 1359 1362 1365 1367 1369 1371 1373 1375 1377 1379 1380 1381 1383 1385 1386 1387 1387 1388 1389 1390 1391 1391 1390 1389 1387 1385 1383 1381 1378 1375